Location: Unspecified
(50.1700°N, 6.8600°E)
Time: 07:59:13
(UTC+00:00)

Okean O Rocket - Pass Details

Date: 24 January 2019
Orbit: 622 x 646 km, 98.2° (Epoch: 21 April)

Event Time Altitude Azimuth Distance (km) Brightness Sun altitude
Rises 04:59:03 0° 11° (N) 2,953 5.1 -21.9°
Reaches altitude 10° 05:01:16 10° 8° (N) 2,043 4.2 -21.5°
Maximum altitude 05:05:40 62° 288° (WNW) 728 1.5 -20.8°
Enters shadow 05:07:26 34° 222° (SW) 1,060 2.4 -20.5°
